STARLINK-34275 (64413 NORAD) Tracking and Keplerian Element Data

This shows tracking and keplerian element data for the satellite.

Feedback or suggestion? Click here.




ElementValue
Catalog64413
NameSTARLINK-34275
Epoch Orbit2937
Epoch Day354.15872499
Epoch Year2025
RAAN275.0095
Inclination70.0016
Eccentricity0.0002909
Argument of Perigee272.4423
Mean Anonmoly87.6403
Mean Motion14.98329566
Decay Rate1.113E-05
L11 64413U 25129B 25354.15872499 .00001113 00000+0 10107-3 0 9998
L22 64413 70.0016 275.0095 0002909 272.4423 87.6403 14.98329566 29378



Live tracking and technical data element details for STARLINK-34275 (NORAD 64413). STARLINK-34275 can be tracked NOW for your location showing map with azimuth and elevation plus other details from your city location.







IsCatalogInMostPopularTable: catalog: 64413, numindb: 4
Update: records affected: 1



GetName: 64413 STARLINK-34275

Hit Count: updated at: Sun, 08 Feb 2026 09:09:57 GMT